Regional Weather Roundup
Issued by NWS

Home | Current Version | Previous Version | Graphics & Text | Print | Product List | Glossary On
Versions: 1 2 3 4 5 6 7 8 9 10 11 12 13 14 15 16 17 18 19 20 21 22 23 24 25 26 27 28 29 30 31 32 33 34 35 36 37 38 39 40 41 42 43 44 45 46 47 48 49 50
000
ASUS43 KBIS 200202
RWRND

NORTH DAKOTA REGIONAL WEATHER ROUNDUP
NATIONAL WEATHER SERVICE BISMARCK ND
800 PM CST FRI JAN 19 2018

NOTE: "FAIR" INDICATES FEW OR NO CLOUDS BELOW 12,000 FEET WITH NO
SIGNIFICANT WEATHER AND/OR OBSTRUCTIONS TO VISIBILITY.


NDZ001>003-009>011-017-200300-
NORTHWEST NORTH DAKOTA

CITY           SKY/WX    TMP DP  RH WIND       PRES   REMARKS
WILLISTON      MOCLDY    31  24  75 VRB3      29.68R
MINOT          CLEAR     36  26  67 SW14      29.62R
MINOT AFB      CLEAR     32  26  78 W12       29.60R
$$

NDZ018>021-031>035-040>046-200300-
SOUTHWEST NORTH DAKOTA

CITY           SKY/WX    TMP DP  RH WIND       PRES   REMARKS
BISMARCK       PTCLDY    37  31  78 W9        29.69R
DICKINSON      MOCLDY    35  30  82 W16       29.67S
GARRISON         N/A     34  26  72 W14       29.65R
HETTINGER ARPT CLOUDY    34  31  88 W13       29.74R
$$

NDZ004>008-012>016-024-026-027-054-200300-
NORTHEAST NORTH DAKOTA

CITY           SKY/WX    TMP DP  RH WIND       PRES   REMARKS
GRAND FORKS    MOCLDY    34  30  85 W9        29.59R
GRND FRKS AFB  MOCLDY    36  29  76 NW9       29.59R
DEVILS LAKE    FAIR      30  27  88 W9        29.60R
$$

NDZ022-023-025-028>030-036>039-047>053-200300-
SOUTHEAST NORTH DAKOTA

CITY           SKY/WX    TMP DP  RH WIND       PRES   REMARKS
FARGO          FAIR      33  30  88 SW9       29.64R
JAMESTOWN      PTCLDY    35  29  78 W10       29.63R
$$





USA.gov is the U.S. government's official web portal to all federal, state and local government web resources and services.